Coal Valley, IL

9:17 PM CST on February 27, 2017 (GMT -0600)
Quad-City International

Weather History for KMLI - February, 2015

Change the Weather History Date:

Wednesday, February 25, 2015

  Actual Average Record
Temperature  
Mean Temperature 18 °F 31 °F  
Max Temperature 24 °F 40 °F 71 °F (2000)
Min Temperature 11 °F 22 °F -10 °F (1967)
Degree Days  
Heating Degree Days 47 34  
Month to date heating degree days 1220 964  
Since 1 July heating degree days 5071 4698  
Cooling Degree Days 0 0  
Month to date cooling degree days 0 0  
Year to date cooling degree days 0 0  
Moisture  
Dew Point 10 °F    
Average Humidity 67    
Maximum Humidity 88    
Minimum Humidity 45    
Precipitation  
Precipitation 0.26 in 0.07 in 1.23 in (2000)
Month to date precipitation 1.35 1.37  
Year to date precipitation 2.90 2.86  
Snow  
Snow 3.90 in 0.10 in - ()
Month to date snowfall 18.6 6.2  
Since 1 July snowfall 38.3 26.1  
Snow Depth 2.00 in    
Sea Level Pressure  
Sea Level Pressure 29.99 in    
Wind  
Wind Speed 10 mph (NE)    
Max Wind Speed 18 mph    
Max Gust Speed 22 mph    
Visibility 4 miles    
Events Fog , Snow    
T = Trace of Precipitation, MM = Missing Value Source: NWS Daily Summary

Daily Weather History Graph

Daily Weather History Graph

Search for Another Location

Airport or City:

Trip Planner

Search our weather history database for the weather conditions in past years. The results will help you decide how hot, cold, wet, or windy it might be!

Date:

Astronomy

Feb. 25, 2015 Rise Set
Actual Time 6:43 AM CST 5:47 PM CST
Civil Twilight 6:15 AM CST 6:15 PM CST
Nautical Twilight 5:43 AM CST 6:47 PM CST
Astronomical Twilight 5:11 AM CST 7:19 PM CST
Moon 10:59 AM CST (2/25) 12:41 AM CST (2/25)
Length of Visible Light 12h 00m
Length of Day
11h 04m
Waxing Crescent, 50% of the Moon is Illuminated
Feb 25
Waxing Crescent
Mar 5
Full
Mar 13
Last Quarter
Mar 20
New
Mar 27
First Quarter

Hourly Weather History & Observations

Time (CST) Temp. Windchill Dew Point Humidity Pressure Visibility Wind Dir Wind Speed Gust Speed Precip Events Conditions
12:52 AM 21.9 °F 14.5 °F 9.0 °F 58% 29.93 in 10.0 mi WNW 5.8 mph - N/A   Clear
1:52 AM 19.9 °F 10.1 °F 8.1 °F 60% 29.93 in 10.0 mi NW 8.1 mph - N/A   Clear
2:52 AM 19.4 °F 12.8 °F 6.8 °F 58% 29.90 in 10.0 mi NW 4.6 mph - N/A   Clear
3:52 AM 12.0 °F - 5.0 °F 73% 29.94 in 10.0 mi Calm Calm - N/A   Clear
4:52 AM 10.9 °F - 5.0 °F 77% 29.94 in 10.0 mi Calm Calm - N/A   Scattered Clouds
5:52 AM 17.1 °F 8.7 °F 10.0 °F 74% 29.96 in 10.0 mi East 5.8 mph - N/A   Overcast
6:52 AM 18.0 °F 8.7 °F 7.0 °F 62% 29.97 in 10.0 mi East 6.9 mph - N/A   Scattered Clouds
7:52 AM 19.0 °F 7.5 °F 5.0 °F 54% 30.00 in 10.0 mi East 10.4 mph - N/A   Overcast
8:52 AM 19.0 °F 5.0 °F 5.0 °F 54% 30.02 in 10.0 mi East 15.0 mph - N/A   Overcast
9:52 AM 19.9 °F 5.7 °F 3.9 °F 50% 30.03 in 10.0 mi East 16.1 mph - N/A   Overcast
10:52 AM 21.0 °F 7.6 °F 3.9 °F 48% 30.01 in 10.0 mi East 15.0 mph - N/A   Overcast
11:52 AM 21.9 °F 11.0 °F 6.1 °F 51% 29.99 in 10.0 mi ENE 10.4 mph - N/A   Overcast
12:52 PM 23.0 °F 12.4 °F 8.1 °F 53% 29.96 in 10.0 mi ENE 10.4 mph - N/A   Overcast
1:32 PM 21.9 °F 9.2 °F 10.9 °F 63% 29.92 in 2.0 mi East 13.8 mph - 0.00 in Snow Light Snow
1:52 PM 19.9 °F 5.2 °F 10.9 °F 68% 29.94 in 3.0 mi ENE 17.3 mph - 0.00 in Snow Light Snow
2:06 PM 19.9 °F 5.2 °F 12.0 °F 71% 29.91 in 2.5 mi ENE 17.3 mph - 0.00 in Snow Light Snow
2:14 PM 19.9 °F 5.7 °F 12.0 °F 71% 29.91 in 1.5 mi ENE 16.1 mph - 0.00 in Snow Light Snow
2:52 PM 19.4 °F 4.5 °F 12.2 °F 74% 29.89 in 1.5 mi ENE 17.3 mph - N/A Snow Light Snow
3:35 PM 19.0 °F 4.0 °F 12.0 °F 74% 29.90 in 0.8 mi East 17.3 mph - 0.00 in Snow Light Snow
3:52 PM 19.0 °F 4.5 °F 12.9 °F 77% 29.94 in 0.8 mi East 16.1 mph - 0.01 in Snow Light Snow
4:05 PM 19.0 °F 5.6 °F 12.9 °F 77% 29.90 in 1.0 mi ENE 13.8 mph - 0.00 in Snow Light Snow
4:17 PM 19.0 °F 4.5 °F 12.9 °F 77% 29.90 in 0.8 mi East 16.1 mph - 0.01 in Snow Light Snow
4:38 PM 19.0 °F 6.1 °F 14.0 °F 81% 29.92 in 0.5 mi ENE 12.7 mph - 0.02 in Snow Snow
4:52 PM 19.0 °F 8.2 °F 14.0 °F 81% 29.96 in 0.5 mi ENE 9.2 mph - 0.03 in Snow Snow
5:21 PM 19.0 °F 6.8 °F 14.0 °F 81% 29.94 in 0.5 mi NE 11.5 mph - 0.02 in Snow Snow
5:52 PM 18.0 °F 4.8 °F 14.0 °F 84% 29.98 in 0.5 mi NE 12.7 mph - 0.06 in Fog , Snow Snow
6:08 PM 18.0 °F 5.4 °F 14.0 °F 84% 29.96 in 0.8 mi NNE 11.5 mph - 0.02 in Snow Light Snow
6:27 PM 17.6 °F 3.2 °F 12.2 °F 79% 29.96 in 1.0 mi NE 15.0 mph - N/A Snow Light Snow
6:39 PM 18.0 °F 3.6 °F 12.9 °F 81% 29.97 in 1.0 mi NNE 15.0 mph - 0.04 in Snow Light Snow
6:52 PM 17.1 °F 2.5 °F 12.0 °F 81% 30.01 in 1.0 mi NE 15.0 mph - 0.04 in Snow Light Snow
7:42 PM 17.1 °F 5.0 °F 12.0 °F 81% 29.99 in 0.8 mi NE 10.4 mph - 0.02 in Snow Light Snow
7:52 PM 17.1 °F 6.6 °F 12.9 °F 84% 30.03 in 0.8 mi NE 8.1 mph - 0.03 in Snow Light Snow
8:31 PM 17.1 °F 7.6 °F 12.0 °F 81% 30.02 in 1.0 mi NNE 6.9 mph - 0.03 in Snow Light Snow
8:39 PM 16.0 °F 4.4 °F 12.0 °F 84% 30.02 in 0.8 mi NNE 9.2 mph - 0.04 in Snow Light Snow
8:47 PM 15.8 °F 5.1 °F 12.2 °F 86% 30.02 in 1.0 mi NNE 8.1 mph - 0.04 in Snow Light Snow
8:52 PM 16.0 °F 4.4 °F 12.0 °F 84% 30.05 in 1.0 mi NNE 9.2 mph - 0.04 in Snow Light Snow
9:10 PM 16.0 °F 4.4 °F 12.0 °F 84% 30.03 in 1.2 mi NNE 9.2 mph - 0.01 in Snow Light Snow
9:52 PM 16.0 °F 3.6 °F 10.9 °F 81% 30.07 in 1.2 mi NNE 10.4 mph - 0.02 in Snow Light Snow
9:59 PM 16.0 °F 4.4 °F 10.9 °F 81% 30.04 in 2.0 mi NNE 9.2 mph - 0.00 in Snow Light Snow
10:23 PM 16.0 °F 4.4 °F 10.9 °F 81% 30.05 in 1.8 mi NNE 9.2 mph - 0.00 in Snow Light Snow
10:41 PM 16.0 °F 4.4 °F 10.9 °F 81% 30.06 in 2.0 mi NNE 9.2 mph - 0.01 in Snow Light Snow
10:49 PM 15.8 °F 4.2 °F 10.4 °F 79% 30.06 in 1.5 mi NNE 9.2 mph - 0.01 in Snow Light Snow
10:52 PM 16.0 °F 3.6 °F 10.9 °F 81% 30.09 in 1.5 mi NNE 10.4 mph - 0.01 in Snow Light Snow
11:19 PM 15.1 °F 3.3 °F 10.9 °F 84% 30.06 in 2.5 mi North 9.2 mph - 0.00 in Snow Light Snow
11:28 PM 15.1 °F 2.5 °F 10.0 °F 80% 30.06 in 3.0 mi North 10.4 mph - 0.00 in Snow Light Snow
11:52 PM 15.1 °F 2.5 °F 10.0 °F 80% 30.11 in 1.8 mi North 10.4 mph - 0.01 in Snow Light Snow